| time (UTC) | temp F | wind direction | speed MPH | gust MPH | rain 1hr in | rain 24hr in | rain mn in | humidity % | barometer mb |
| 20260906154059 | 74 | 71 | 5.0 | 12.0 | 0.00 | 0.00 | 0.00 | 59 | 1018.2 |
| 20260906153558 | 74 | 88 | 5.0 | 12.0 | 0.00 | 0.00 | 0.00 | 59 | 1018.0 |
| 20260906153121 | 74 | 55 | 4.0 | 12.0 | 0.00 | 0.00 | 0.00 | 62 | 1018.1 |
| 20260906152558 | 74 | 68 | 4.0 | 12.0 | 0.00 | 0.00 | 0.00 | 63 | 1018.1 |
| 20260906152058 | 73 | 336 | 4.0 | 13.0 | 0.00 | 0.00 | 0.00 | 65 | 1018.1 |
| 20260906151601 | 73 | 96 | 6.0 | 13.0 | 0.00 | 0.00 | 0.00 | 64 | 1018.0 |
| 20260906151100 | 73 | 69 | 5.0 | 11.0 | 0.00 | 0.00 | 0.00 | 65 | 1018.0 |
| 20260906150558 | 73 | 46 | 4.0 | 11.0 | 0.00 | 0.00 | 0.00 | 65 | 1018.1 |
| 20260906150107 | 72 | 315 | 3.0 | 11.0 | 0.00 | 0.00 | 0.00 | 66 | 1018.2 |
| 20260906145600 | 72 | 85 | 4.0 | 12.0 | 0.00 | 0.00 | 0.00 | 66 | 1018.0 |
| 20260906145101 | 72 | 97 | 5.0 | 12.0 | 0.00 | 0.00 | 0.00 | 67 | 1018.0 |
| 20260906144618 | 72 | 68 | 6.0 | 14.0 | 0.00 | 0.00 | 0.00 | 67 | 1018.0 |
| 20260906144058 | 71 | 80 | 5.0 | 14.0 | 0.00 | 0.00 | 0.00 | 67 | 1017.9 |
| 20260906143559 | 71 | 79 | 5.0 | 16.0 | 0.00 | 0.00 | 0.00 | 68 | 1018.0 |
| 20260906143107 | 71 | 92 | 4.0 | 16.0 | 0.00 | 0.00 | 0.00 | 68 | 1018.0 |
| 20260906142557 | 71 | 113 | 7.0 | 16.0 | 0.00 | 0.00 | 0.00 | 69 | 1017.9 |
| 20260906142059 | 71 | 98 | 5.0 | 14.0 | 0.00 | 0.00 | 0.00 | 70 | 1017.8 |
| 20260906141610 | 70 | 99 | 7.0 | 16.0 | 0.00 | 0.00 | 0.00 | 70 | 1017.9 |
| 20260906141101 | 70 | 80 | 7.0 | 16.0 | 0.00 | 0.00 | 0.00 | 70 | 1017.9 |
| 20260906140558 | 70 | 82 | 9.0 | 16.0 | 0.00 | 0.00 | 0.00 | 70 | 1017.9 |
| 20260906140110 | 69 | 53 | 7.0 | 15.0 | 0.00 | 0.00 | 0.00 | 72 | 1017.8 |
| 20260906135558 | 69 | 93 | 6.0 | 15.0 | 0.00 | 0.00 | 0.00 | 73 | 1017.8 |
| 20260906135057 | 69 | 94 | 6.0 | 13.0 | 0.00 | 0.00 | 0.00 | 74 | 1017.7 |
| 20260906134631 | 69 | 0 | 7.0 | 13.0 | 0.00 | 0.00 | 0.00 | 75 | 1017.6 |
| 20260906134058 | 68 | 98 | 4.0 | 11.0 | 0.00 | 0.00 | 0.00 | 75 | 1017.7 |
| 20260906133559 | 68 | 73 | 5.0 | 12.0 | 0.00 | 0.00 | 0.00 | 76 | 1017.7 |
| 20260906133104 | 67 | 92 | 3.0 | 12.0 | 0.00 | 0.00 | 0.00 | 77 | 1017.7 |
| 20260906132602 | 67 | 89 | 5.0 | 12.0 | 0.00 | 0.00 | 0.00 | 77 | 1017.7 |
| 20260906132100 | 67 | 0 | 4.0 | 12.0 | 0.00 | 0.00 | 0.00 | 79 | 1017.6 |
| 20260906131602 | 66 | 92 | 2.0 | 12.0 | 0.00 | 0.00 | 0.00 | 79 | 1017.5 |
| 20260906131058 | 66 | 40 | 3.0 | 12.0 | 0.00 | 0.00 | 0.00 | 79 | 1017.6 |
| 20260906130558 | 66 | 360 | 6.0 | 12.0 | 0.00 | 0.00 | 0.00 | 79 | 1017.5 |
| 20260906130107 | 66 | 65 | 4.0 | 11.0 | 0.00 | 0.00 | 0.00 | 80 | 1017.6 |
| 20260906125600 | 65 | 63 | 2.0 | 11.0 | 0.00 | 0.04 | 0.00 | 81 | 1017.4 |
| 20260906125058 | 65 | 113 | 3.0 | 10.0 | 0.00 | 0.04 | 0.00 | 81 | 1017.5 |
| 20260906124609 | 65 | 56 | 1.0 | 8.0 | 0.00 | 0.04 | 0.00 | 82 | 1017.4 |
| 20260906124058 | 64 | 89 | 2.0 | 8.0 | 0.00 | 0.04 | 0.00 | 83 | 1017.5 |
| 20260906123558 | 64 | 96 | 2.0 | 8.0 | 0.00 | 0.04 | 0.00 | 83 | 1017.4 |
| 20260906123110 | 63 | 49 | 2.0 | 7.0 | 0.00 | 0.04 | 0.00 | 85 | 1017.3 |
| 20260906122558 | 63 | 84 | 1.0 | 7.0 | 0.00 | 0.04 | 0.00 | 86 | 1017.2 |
| 20260906122059 | 62 | 48 | 1.0 | 8.0 | 0.00 | 0.04 | 0.00 | 86 | 1017.2 |
| 20260906121058 | 62 | 49 | 1.0 | 6.0 | 0.00 | 0.04 | 0.00 | 87 | 1017.0 |
| 20260906120558 | 62 | 0 | 2.0 | 6.0 | 0.00 | 0.04 | 0.00 | 87 | 1017.0 |
| 20260906120108 | 62 | 0 | 0.0 | 5.0 | 0.00 | 0.04 | 0.00 | 86 | 1016.8 |
| 20260906115558 | 62 | 30 | 1.0 | 5.0 | 0.00 | 0.14 | 0.00 | 86 | 1016.7 |
| 20260906115058 | 62 | 62 | 1.0 | 4.0 | 0.00 | 0.14 | 0.00 | 87 | 1016.6 |
| 20260906114622 | 62 | 38 | 0.0 | 4.0 | 0.00 | 0.14 | 0.00 | 87 | 1016.7 |
| 20260906114059 | 61 | 0 | 0.0 | 5.0 | 0.00 | 0.14 | 0.00 | 87 | 1016.5 |
| 20260906113558 | 61 | 0 | 0.0 | 5.0 | 0.00 | 0.14 | 0.00 | 86 | 1016.6 |
| 20260906113104 | 61 | 0 | 0.0 | 6.0 | 0.00 | 0.14 | 0.00 | 86 | 1016.5 |
| 20260906112558 | 61 | 0 | 0.0 | 7.0 | 0.00 | 0.14 | 0.00 | 86 | 1016.3 |
| 20260906112058 | 61 | 34 | 1.0 | 7.0 | 0.00 | 0.14 | 0.00 | 86 | 1016.3 |
| 20260906111624 | 62 | 38 | 1.0 | 5.0 | 0.00 | 0.14 | 0.00 | 85 | 1016.3 |
| 20260906111101 | 62 | 49 | 1.0 | 5.0 | 0.00 | 0.14 | 0.00 | 85 | 1016.4 |
| 20260906110558 | 62 | 0 | 1.0 | 4.0 | 0.00 | 0.14 | 0.00 | 84 | 1016.5 |
| 20260906105558 | 63 | 0 | 1.0 | 4.0 | 0.00 | 0.21 | 0.00 | 84 | 1016.5 |
| 20260906105102 | 63 | 82 | 0.0 | 6.0 | 0.00 | 0.21 | 0.00 | 84 | 1016.4 |
| 20260906104607 | 63 | 0 | 1.0 | 7.0 | 0.00 | 0.21 | 0.00 | 84 | 1016.5 |
| 20260906104058 | 63 | 0 | 1.0 | 8.0 | 0.00 | 0.21 | 0.00 | 84 | 1016.4 |
| 20260906103559 | 63 | 51 | 2.0 | 8.0 | 0.00 | 0.21 | 0.00 | 84 | 1016.4 |
| 20260906103107 | 63 | 360 | 2.0 | 8.0 | 0.00 | 0.21 | 0.00 | 84 | 1016.3 |
| 20260906102559 | 64 | 346 | 2.0 | 7.0 | 0.00 | 0.21 | 0.00 | 84 | 1016.3 |
| 20260906102058 | 64 | 360 | 1.0 | 9.0 | 0.00 | 0.21 | 0.00 | 83 | 1016.2 |
| 20260906101605 | 64 | 0 | 2.0 | 9.0 | 0.00 | 0.21 | 0.00 | 83 | 1016.4 |
| 20260906101058 | 64 | 56 | 1.0 | 6.0 | 0.00 | 0.21 | 0.00 | 83 | 1016.3 |
| 20260906100558 | 64 | 46 | 1.0 | 6.0 | 0.00 | 0.21 | 0.00 | 83 | 1016.3 |
| 20260906100105 | 64 | 46 | 1.0 | 6.0 | 0.00 | 0.21 | 0.00 | 83 | 1016.3 |
| 20260906095558 | 64 | 0 | 1.0 | 6.0 | 0.00 | 0.38 | 0.00 | 83 | 1016.3 |
| 20260906095100 | 64 | 86 | 2.0 | 6.0 | 0.00 | 0.38 | 0.00 | 83 | 1016.2 |
| 20260906094601 | 64 | 0 | 1.0 | 5.0 | 0.00 | 0.38 | 0.00 | 83 | 1016.0 |
| 20260906094058 | 64 | 54 | 1.0 | 5.0 | 0.00 | 0.38 | 0.00 | 83 | 1016.0 |
| 20260906093558 | 64 | 0 | 1.0 | 6.0 | 0.00 | 0.38 | 0.00 | 83 | 1015.9 |
| 20260906093105 | 65 | 360 | 1.0 | 6.0 | 0.00 | 0.38 | 0.00 | 83 | 1016.0 |
| 20260906092558 | 65 | 61 | 1.0 | 6.0 | 0.00 | 0.38 | 0.00 | 84 | 1016.0 |
| 20260906092100 | 65 | 360 | 1.0 | 5.0 | 0.00 | 0.38 | 0.00 | 84 | 1016.0 |
| 20260906091612 | 65 | 352 | 0.0 | 5.0 | 0.00 | 0.38 | 0.00 | 84 | 1015.9 |
| 20260906091059 | 65 | 0 | 0.0 | 5.0 | 0.00 | 0.38 | 0.00 | 84 | 1015.9 |
| 20260906090557 | 65 | 44 | 0.0 | 5.0 | 0.00 | 0.38 | 0.00 | 84 | 1015.9 |
| 20260906090116 | 65 | 0 | 1.0 | 5.0 | 0.00 | 0.38 | 0.00 | 84 | 1015.8 |
| 20260906085558 | 65 | 55 | 1.0 | 6.0 | 0.00 | 0.38 | 0.00 | 85 | 1015.8 |
| 20260906085058 | 65 | 63 | 1.0 | 6.0 | 0.00 | 0.38 | 0.00 | 85 | 1015.8 |
| 20260906084612 | 65 | 0 | 1.0 | 5.0 | 0.00 | 0.38 | 0.00 | 85 | 1015.7 |
| 20260906084058 | 65 | 360 | 2.0 | 5.0 | 0.00 | 0.38 | 0.00 | 85 | 1015.7 |
| 20260906083558 | 65 | 0 | 1.0 | 5.0 | 0.00 | 0.38 | 0.00 | 85 | 1015.7 |
| 20260906083103 | 65 | 57 | 1.0 | 8.0 | 0.00 | 0.38 | 0.00 | 85 | 1015.7 |
| 20260906082558 | 66 | 0 | 1.0 | 8.0 | 0.00 | 0.38 | 0.00 | 85 | 1015.7 |
| 20260906082149 | 66 | 0 | 3.0 | 8.0 | 0.00 | 0.38 | 0.00 | 86 | 1015.8 |
| 20260906081606 | 66 | 44 | 1.0 | 7.0 | 0.00 | 0.38 | 0.00 | 86 | 1015.6 |
| 20260906081059 | 66 | 46 | 1.0 | 6.0 | 0.00 | 0.38 | 0.00 | 86 | 1015.6 |
| 20260906080559 | 66 | 0 | 1.0 | 5.0 | 0.00 | 0.38 | 0.00 | 86 | 1015.6 |
| 20260906080103 | 66 | 43 | 0.0 | 3.0 | 0.00 | 0.38 | 0.00 | 86 | 1015.6 |
| 20260906075558 | 66 | 0 | 1.0 | 4.0 | 0.00 | 0.38 | 0.00 | 87 | 1015.6 |
| 20260906075100 | 66 | 49 | 0.0 | 4.0 | 0.00 | 0.38 | 0.00 | 87 | 1015.6 |
| 20260906074612 | 66 | 0 | 1.0 | 3.0 | 0.00 | 0.38 | 0.00 | 87 | 1015.5 |
| 20260906074058 | 66 | 0 | 0.0 | 3.0 | 0.00 | 0.38 | 0.00 | 87 | 1015.6 |
| 20260906073600 | 66 | 53 | 0.0 | 0.0 | 0.00 | 0.38 | 0.00 | 88 | 1015.6 |
| 20260906073109 | 66 | 0 | 0.0 | 0.0 | 0.00 | 0.38 | 0.00 | 88 | 1015.5 |
| 20260906072558 | 66 | 0 | 0.0 | 0.0 | 0.00 | 0.38 | 0.00 | 88 | 1015.5 |
| 20260906072059 | 66 | 0 | 0.0 | 2.0 | 0.00 | 0.38 | 0.00 | 88 | 1015.5 |
| 20260906071600 | 66 | 0 | 0.0 | 2.0 | 0.00 | 0.38 | 0.00 | 88 | 1015.5 |
| 20260906071059 | 66 | 0 | 0.0 | 2.0 | 0.00 | 0.38 | 0.00 | 88 | 1015.5 |
| 20260906070559 | 66 | 0 | 0.0 | 3.0 | 0.00 | 0.38 | 0.00 | 88 | 1015.5 |
| 20260906070135 | 66 | 0 | 0.0 | 3.0 | 0.00 | 0.38 | 0.00 | 88 | 1015.6 |
| 20260906065602 | 66 | 0 | 0.0 | 4.0 | 0.00 | 0.44 | 0.00 | 88 | 1015.5 |
| 20260906065057 | 66 | 0 | 0.0 | 4.0 | 0.00 | 0.44 | 0.00 | 88 | 1015.5 |
| 20260906064603 | 67 | 0 | 0.0 | 4.0 | 0.00 | 0.44 | 0.00 | 88 | 1015.7 |
| 20260906064059 | 67 | 0 | 0.0 | 4.0 | 0.00 | 0.44 | 0.00 | 88 | 1015.6 |
| 20260906063559 | 67 | 0 | 1.0 | 4.0 | 0.00 | 0.44 | 0.00 | 87 | 1015.6 |
| 20260906063105 | 67 | 0 | 0.0 | 2.0 | 0.00 | 0.44 | 0.00 | 87 | 1015.6 |
| 20260906062559 | 67 | 0 | 0.0 | 3.0 | 0.00 | 0.44 | 0.00 | 87 | 1015.7 |
| 20260906062058 | 67 | 0 | 0.0 | 4.0 | 0.00 | 0.44 | 0.00 | 87 | 1015.7 |
| 20260906061635 | 67 | 52 | 0.0 | 4.0 | 0.00 | 0.44 | 0.00 | 88 | 1015.6 |
| 20260906061102 | 67 | 0 | 0.0 | 3.0 | 0.00 | 0.44 | 0.00 | 88 | 1015.7 |
| 20260906060602 | 67 | 0 | 0.0 | 3.0 | 0.00 | 0.44 | 0.00 | 88 | 1015.7 |
| 20260906060109 | 67 | 0 | 0.0 | 3.0 | 0.00 | 0.44 | 0.00 | 89 | 1015.7 |
| 20260906055601 | 67 | 0 | 0.0 | 2.0 | 0.00 | 0.44 | 0.00 | 89 | 1015.6 |
| 20260906055058 | 67 | 0 | 0.0 | 3.0 | 0.00 | 0.44 | 0.00 | 90 | 1015.5 |
| 20260906054602 | 67 | 0 | 0.0 | 3.0 | 0.00 | 0.44 | 0.00 | 90 | 1015.5 |
| 20260906054059 | 67 | 51 | 0.0 | 0.0 | 0.00 | 0.44 | 0.00 | 90 | 1015.4 |
| 20260906053558 | 67 | 0 | 0.0 | 2.0 | 0.00 | 0.44 | 0.00 | 90 | 1015.4 |
| 20260906053100 | 67 | 0 | 0.0 | 5.0 | 0.00 | 0.44 | 0.00 | 90 | 1015.3 |
| 20260906052558 | 67 | 0 | 0.0 | 5.0 | 0.00 | 0.44 | 0.00 | 90 | 1015.2 |
| 20260906052059 | 67 | 51 | 1.0 | 5.0 | 0.00 | 0.44 | 0.00 | 90 | 1015.3 |
| 20260906051602 | 67 | 0 | 0.0 | 5.0 | 0.00 | 0.44 | 0.00 | 91 | 1015.2 |
| 20260906051058 | 67 | 0 | 0.0 | 5.0 | 0.00 | 0.44 | 0.00 | 91 | 1015.1 |
| 20260906050558 | 67 | 58 | 0.0 | 4.0 | 0.00 | 0.44 | 0.00 | 91 | 1015.0 |
| 20260906050116 | 67 | 0 | 0.0 | 3.0 | 0.00 | 0.44 | 0.00 | 90 | 1014.9 |
| 20260906045558 | 67 | 49 | 0.0 | 5.0 | 0.00 | 0.44 | 0.00 | 90 | 1014.9 |
| 20260906045058 | 67 | 0 | 0.0 | 5.0 | 0.00 | 0.44 | 0.00 | 90 | 1014.7 |
| 20260906044604 | 67 | 63 | 0.0 | 5.0 | 0.00 | 0.44 | 0.00 | 90 | 1014.6 |
| 20260906044058 | 67 | 0 | 0.0 | 5.0 | 0.00 | 0.44 | 0.00 | 90 | 1014.6 |
| 20260906043557 | 68 | 61 | 0.0 | 4.0 | 0.00 | 0.44 | 0.00 | 90 | 1014.6 |
| 20260906043112 | 68 | 49 | 1.0 | 5.0 | 0.00 | 0.44 | 0.00 | 90 | 1014.8 |
| 20260906042559 | 68 | 48 | 1.0 | 5.0 | 0.00 | 0.44 | 0.00 | 90 | 1014.5 |
| 20260906042058 | 68 | 46 | 1.0 | 5.0 | 0.00 | 0.44 | 0.00 | 90 | 1014.5 |
| 20260906041605 | 68 | 48 | 1.0 | 4.0 | 0.00 | 0.44 | 0.00 | 90 | 1014.5 |
| 20260906041100 | 69 | 52 | 0.0 | 5.0 | 0.00 | 0.44 | 0.00 | 90 | 1014.6 |
| 20260906040600 | 69 | 355 | 1.0 | 5.0 | 0.00 | 0.44 | 0.00 | 90 | 1014.5 |
| 20260906040119 | 69 | 0 | 0.0 | 5.0 | 0.00 | 0.44 | 0.00 | 90 | 1014.5 |
| 20260906035600 | 69 | 0 | 0.0 | 3.0 | 0.00 | 0.44 | 0.44 | 90 | 1014.5 |
| 20260906035058 | 69 | 0 | 0.0 | 4.0 | 0.00 | 0.44 | 0.44 | 90 | 1014.6 |
| 20260906034602 | 69 | 0 | 0.0 | 5.0 | 0.00 | 0.44 | 0.44 | 90 | 1014.6 |
| 20260906034058 | 70 | 0 | 0.0 | 6.0 | 0.00 | 0.44 | 0.44 | 89 | 1014.6 |
| 20260906033558 | 70 | 61 | 1.0 | 8.0 | 0.00 | 0.44 | 0.44 | 90 | 1014.5 |
| 20260906033101 | 70 | 53 | 2.0 | 8.0 | 0.00 | 0.44 | 0.44 | 90 | 1014.5 |
| 20260906032601 | 70 | 56 | 2.0 | 7.0 | 0.00 | 0.44 | 0.44 | 90 | 1014.5 |
| 20260906032100 | 70 | 72 | 1.0 | 7.0 | 0.00 | 0.44 | 0.44 | 90 | 1014.5 |
| 20260906031610 | 71 | 0 | 2.0 | 6.0 | 0.00 | 0.44 | 0.44 | 90 | 1014.6 |
| 20260906031058 | 71 | 60 | 0.0 | 8.0 | 0.00 | 0.44 | 0.44 | 90 | 1014.8 |
| 20260906030558 | 70 | 46 | 2.0 | 11.0 | 0.00 | 0.44 | 0.44 | 90 | 1014.6 |
| 20260906030110 | 70 | 57 | 3.0 | 11.0 | 0.00 | 0.44 | 0.44 | 90 | 1014.6 |
| 20260906025557 | 70 | 67 | 3.0 | 9.0 | 0.00 | 0.44 | 0.44 | 90 | 1014.9 |
| 20260906025059 | 71 | 49 | 2.0 | 8.0 | 0.00 | 0.44 | 0.44 | 90 | 1014.8 |
| 20260906024603 | 71 | 51 | 2.0 | 8.0 | 0.00 | 0.44 | 0.44 | 91 | 1014.6 |
| 20260906024101 | 71 | 59 | 2.0 | 8.0 | 0.00 | 0.44 | 0.44 | 91 | 1014.6 |
| 20260906023557 | 71 | 49 | 2.0 | 6.0 | 0.00 | 0.44 | 0.44 | 91 | 1014.7 |
| 20260906023130 | 71 | 0 | 0.0 | 6.0 | 0.00 | 0.44 | 0.44 | 91 | 1014.5 |
| 20260906022558 | 72 | 0 | 0.0 | 4.0 | 0.00 | 0.44 | 0.44 | 91 | 1014.6 |
| 20260906022059 | 72 | 0 | 1.0 | 4.0 | 0.00 | 0.44 | 0.44 | 91 | 1014.6 |
| 20260906021608 | 72 | 0 | 1.0 | 4.0 | 0.00 | 0.44 | 0.44 | 91 | 1014.5 |
| 20260906021100 | 72 | 57 | 1.0 | 4.0 | 0.00 | 0.44 | 0.44 | 90 | 1014.7 |
| 20260906020558 | 72 | 51 | 1.0 | 3.0 | 0.00 | 0.44 | 0.44 | 90 | 1014.7 |
| 20260906020105 | 72 | 51 | 0.0 | 4.0 | 0.00 | 0.44 | 0.44 | 90 | 1014.6 |
| 20260906015557 | 72 | 53 | 0.0 | 4.0 | 0.00 | 0.44 | 0.44 | 90 | 1014.6 |
| 20260906015058 | 72 | 0 | 1.0 | 6.0 | 0.00 | 0.44 | 0.44 | 90 | 1014.5 |
| 20260906014623 | 73 | 60 | 1.0 | 6.0 | 0.00 | 0.44 | 0.44 | 90 | 1014.4 |
| 20260906014059 | 73 | 53 | 1.0 | 5.0 | 0.00 | 0.44 | 0.44 | 90 | 1014.2 |
| 20260906013558 | 73 | 0 | 1.0 | 5.0 | 0.00 | 0.44 | 0.44 | 90 | 1014.2 |
| 20260906013101 | 73 | 49 | 1.0 | 6.0 | 0.00 | 0.44 | 0.44 | 90 | 1014.3 |
| 20260906012557 | 73 | 47 | 1.0 | 6.0 | 0.00 | 0.44 | 0.44 | 90 | 1014.3 |
| 20260906012058 | 73 | 60 | 1.0 | 5.0 | 0.00 | 0.44 | 0.44 | 90 | 1014.3 |
| 20260906011605 | 73 | 0 | 0.0 | 4.0 | 0.00 | 0.44 | 0.44 | 90 | 1014.0 |
| 20260906011058 | 74 | 0 | 0.0 | 4.0 | 0.00 | 0.44 | 0.44 | 89 | 1013.9 |
| 20260906010558 | 74 | 0 | 0.0 | 4.0 | 0.00 | 0.44 | 0.44 | 90 | 1013.7 |
| 20260906010106 | 74 | 0 | 0.0 | 4.0 | 0.00 | 0.44 | 0.44 | 90 | 1013.6 |
| 20260906005558 | 74 | 51 | 1.0 | 4.0 | 0.00 | 0.44 | 0.44 | 89 | 1013.5 |
| 20260906005058 | 74 | 0 | 0.0 | 2.0 | 0.00 | 0.44 | 0.44 | 89 | 1013.5 |
| 20260906004614 | 74 | 321 | 0.0 | 2.0 | 0.00 | 0.44 | 0.44 | 88 | 1013.5 |
| 20260906004102 | 74 | 0 | 0.0 | 1.0 | 0.00 | 0.44 | 0.44 | 88 | 1013.5 |
| 20260906003558 | 75 | 0 | 0.0 | 0.0 | 0.00 | 0.44 | 0.44 | 88 | 1013.4 |
| 20260906003109 | 75 | 0 | 0.0 | 0.0 | 0.00 | 0.44 | 0.44 | 87 | 1013.4 |
| 20260906002558 | 75 | 0 | 0.0 | 0.0 | 0.00 | 0.44 | 0.44 | 87 | 1013.5 |
| 20260906002101 | 75 | 0 | 0.0 | 0.0 | 0.00 | 0.44 | 0.44 | 87 | 1013.4 |
| 20260906001605 | 75 | 0 | 0.0 | 0.0 | 0.00 | 0.44 | 0.44 | 86 | 1013.4 |
| 20260906001058 | 76 | 0 | 0.0 | 1.0 | 0.00 | 0.44 | 0.44 | 86 | 1013.5 |
| 20260906000558 | 76 | 0 | 0.0 | 2.0 | 0.00 | 0.44 | 0.44 | 86 | 1013.6 |
| 20260906000110 | 76 | 0 | 0.0 | 4.0 | 0.00 | 0.44 | 0.44 | 86 | 1013.6 |
| 20260905235558 | 76 | 0 | 0.0 | 4.0 | 0.00 | 0.44 | 0.44 | 85 | 1013.5 |
| 20260905235101 | 77 | 0 | 1.0 | 4.0 | 0.00 | 0.44 | 0.44 | 85 | 1013.4 |
| 20260905234604 | 77 | 306 | 0.0 | 3.0 | 0.00 | 0.44 | 0.44 | 84 | 1013.3 |
| 20260905234058 | 77 | 304 | 0.0 | 2.0 | 0.00 | 0.44 | 0.44 | 84 | 1013.4 |
| 20260905233558 | 77 | 0 | 0.0 | 5.0 | 0.00 | 0.44 | 0.44 | 83 | 1013.4 |
| 20260905233102 | 78 | 0 | 1.0 | 5.0 | 0.00 | 0.44 | 0.44 | 83 | 1013.4 |
| 20260905232557 | 78 | 323 | 1.0 | 4.0 | 0.00 | 0.44 | 0.44 | 83 | 1013.4 |
| 20260905232101 | 78 | 302 | 0.0 | 3.0 | 0.00 | 0.44 | 0.44 | 84 | 1013.5 |
| 20260905231603 | 78 | 0 | 0.0 | 4.0 | 0.00 | 0.44 | 0.44 | 83 | 1013.6 |
| 20260905231058 | 78 | 0 | 0.0 | 4.0 | 0.00 | 0.44 | 0.44 | 83 | 1013.5 |
| 20260905230600 | 78 | 0 | 0.0 | 4.0 | 0.00 | 0.44 | 0.44 | 83 | 1013.5 |
| 20260905230109 | 78 | 360 | 0.0 | 5.0 | 0.00 | 0.44 | 0.44 | 82 | 1013.4 |
| 20260905225557 | 78 | 360 | 2.0 | 5.0 | 0.00 | 0.44 | 0.44 | 82 | 1013.3 |
| 20260905225100 | 79 | 360 | 2.0 | 5.0 | 0.00 | 0.44 | 0.44 | 81 | 1013.1 |
| 20260905224608 | 79 | 0 | 0.0 | 5.0 | 0.00 | 0.44 | 0.44 | 80 | 1013.0 |
| 20260905224057 | 80 | 0 | 1.0 | 8.0 | 0.00 | 0.44 | 0.44 | 79 | 1012.9 |
| 20260905223600 | 80 | 347 | 2.0 | 8.0 | 0.00 | 0.44 | 0.44 | 78 | 1013.2 |
| 20260905223101 | 81 | 355 | 4.0 | 9.0 | 0.00 | 0.44 | 0.44 | 76 | 1013.1 |
| 20260905222600 | 81 | 343 | 2.0 | 9.0 | 0.00 | 0.44 | 0.44 | 75 | 1012.8 |
| 20260905222100 | 82 | 101 | 3.0 | 9.0 | 0.00 | 0.44 | 0.44 | 75 | 1012.8 |
| 20260905221602 | 82 | 78 | 2.0 | 6.0 | 0.00 | 0.44 | 0.44 | 75 | 1012.6 |
| 20260905221102 | 81 | 355 | 2.0 | 9.0 | 0.00 | 0.44 | 0.44 | 76 | 1012.8 |
| 20260905220557 | 81 | 51 | 3.0 | 9.0 | 0.00 | 0.44 | 0.44 | 75 | 1012.8 |
| 20260905220118 | 81 | 350 | 3.0 | 9.0 | 0.00 | 0.44 | 0.44 | 75 | 1012.8 |
| 20260905215600 | 81 | 342 | 3.0 | 10.0 | 0.00 | 0.44 | 0.44 | 75 | 1012.8 |
| 20260905215059 | 81 | 64 | 2.0 | 10.0 | 0.00 | 0.44 | 0.44 | 75 | 1012.9 |
| 20260905214606 | 81 | 69 | 3.0 | 10.0 | 0.00 | 0.44 | 0.44 | 73 | 1013.0 |
| 20260905214100 | 82 | 346 | 2.0 | 8.0 | 0.00 | 0.44 | 0.44 | 74 | 1012.9 |
| 20260905213600 | 82 | 49 | 1.0 | 10.0 | 0.00 | 0.44 | 0.44 | 75 | 1013.1 |
| 20260905213107 | 82 | 349 | 2.0 | 10.0 | 0.00 | 0.44 | 0.44 | 75 | 1013.0 |
| 20260905212600 | 82 | 59 | 2.0 | 8.0 | 0.00 | 0.44 | 0.44 | 75 | 1012.9 |
| 20260905212057 | 82 | 355 | 1.0 | 9.0 | 0.00 | 0.44 | 0.44 | 75 | 1012.9 |
| 20260905211611 | 82 | 74 | 3.0 | 10.0 | 0.00 | 0.44 | 0.44 | 75 | 1013.0 |
| 20260905211100 | 82 | 53 | 3.0 | 10.0 | 0.00 | 0.44 | 0.44 | 76 | 1013.0 |
| 20260905210600 | 82 | 69 | 3.0 | 10.0 | 0.00 | 0.44 | 0.44 | 76 | 1012.9 |
| 20260905210112 | 82 | 68 | 2.0 | 8.0 | 0.00 | 0.44 | 0.44 | 75 | 1013.0 |
| 20260905205600 | 82 | 355 | 1.0 | 8.0 | 0.00 | 0.44 | 0.44 | 75 | 1013.0 |
| 20260905205100 | 82 | 0 | 1.0 | 6.0 | 0.00 | 0.44 | 0.44 | 75 | 1012.8 |
| 20260905204601 | 82 | 56 | 3.0 | 8.0 | 0.00 | 0.44 | 0.44 | 75 | 1012.9 |
| 20260905204102 | 82 | 352 | 1.0 | 8.0 | 0.00 | 0.44 | 0.44 | 77 | 1012.9 |
| 20260905203600 | 83 | 355 | 2.0 | 9.0 | 0.00 | 0.44 | 0.44 | 75 | 1013.0 |
| 20260905203104 | 83 | 59 | 1.0 | 9.0 | 0.00 | 0.44 | 0.44 | 74 | 1013.0 |
| 20260905202600 | 83 | 349 | 3.0 | 10.0 | 0.00 | 0.44 | 0.44 | 74 | 1013.0 |
| 20260905202059 | 83 | 71 | 4.0 | 10.0 | 0.00 | 0.44 | 0.44 | 75 | 1013.1 |
| 20260905201605 | 83 | 355 | 4.0 | 10.0 | 0.00 | 0.44 | 0.44 | 74 | 1013.3 |
| 20260905201059 | 83 | 0 | 1.0 | 4.0 | 0.00 | 0.44 | 0.44 | 77 | 1013.4 |
| 20260905200557 | 82 | 61 | 0.0 | 4.0 | 0.00 | 0.44 | 0.44 | 77 | 1013.3 |
| 20260905200106 | 82 | 306 | 0.0 | 8.0 | 0.00 | 0.44 | 0.44 | 77 | 1013.4 |
| 20260905195600 | 81 | 46 | 2.0 | 8.0 | 0.00 | 0.44 | 0.44 | 77 | 1013.6 |
| 20260905195100 | 81 | 350 | 2.0 | 6.0 | 0.00 | 0.44 | 0.44 | 78 | 1013.7 |
| 20260905194604 | 81 | 350 | 2.0 | 6.0 | 0.00 | 0.44 | 0.44 | 77 | 1013.8 |
| 20260905194058 | 81 | 0 | 3.0 | 8.0 | 0.00 | 0.44 | 0.44 | 77 | 1013.9 |
| 20260905193557 | 81 | 355 | 1.0 | 8.0 | 0.00 | 0.44 | 0.44 | 76 | 1014.0 |
| 20260905193107 | 82 | 75 | 1.0 | 7.0 | 0.00 | 0.44 | 0.44 | 76 | 1014.0 |
| 20260905192558 | 82 | 0 | 1.0 | 6.0 | 0.00 | 0.44 | 0.44 | 76 | 1014.1 |
| 20260905192100 | 82 | 35 | 2.0 | 6.0 | 0.00 | 0.44 | 0.44 | 75 | 1014.1 |
| 20260905191618 | 82 | 360 | 2.0 | 5.0 | 0.00 | 0.44 | 0.44 | 76 | 1014.2 |
| 20260905191057 | 82 | 0 | 2.0 | 6.0 | 0.00 | 0.44 | 0.44 | 76 | 1014.3 |
| 20260905190601 | 82 | 338 | 2.0 | 7.0 | 0.00 | 0.44 | 0.44 | 76 | 1014.3 |
| 20260905190114 | 82 | 360 | 3.0 | 9.0 | 0.00 | 0.44 | 0.44 | 76 | 1014.3 |
| 20260905185559 | 82 | 0 | 2.0 | 9.0 | 0.00 | 0.44 | 0.44 | 75 | 1014.3 |
| 20260905185058 | 83 | 57 | 2.0 | 8.0 | 0.00 | 0.44 | 0.44 | 75 | 1014.2 |
| 20260905184605 | 82 | 90 | 1.0 | 8.0 | 0.00 | 0.44 | 0.44 | 75 | 1014.3 |
| 20260905184058 | 82 | 59 | 1.0 | 8.0 | 0.00 | 0.44 | 0.44 | 76 | 1014.2 |
| 20260905183603 | 83 | 71 | 3.0 | 8.0 | 0.00 | 0.44 | 0.44 | 75 | 1014.4 |
| 20260905183125 | 83 | 77 | 2.0 | 10.0 | 0.00 | 0.44 | 0.44 | 75 | 1014.4 |
| 20260905182559 | 83 | 355 | 3.0 | 10.0 | 0.00 | 0.44 | 0.44 | 75 | 1014.4 |
| 20260905182100 | 83 | 47 | 1.0 | 6.0 | 0.00 | 0.44 | 0.44 | 76 | 1014.4 |
| 20260905181605 | 82 | 350 | 0.0 | 8.0 | 0.00 | 0.44 | 0.44 | 77 | 1014.4 |
| 20260905181103 | 82 | 349 | 0.0 | 8.0 | 0.00 | 0.44 | 0.44 | 78 | 1014.5 |
| 20260905180559 | 82 | 344 | 2.0 | 8.0 | 0.00 | 0.44 | 0.44 | 75 | 1014.4 |
| 20260905180107 | 81 | 24 | 2.0 | 8.0 | 0.00 | 0.44 | 0.44 | 78 | 1014.5 |
| 20260905175558 | 81 | 313 | 4.0 | 8.0 | 0.00 | 0.44 | 0.44 | 79 | 1014.5 |
| 20260905175058 | 80 | 346 | 0.0 | 5.0 | 0.00 | 0.44 | 0.44 | 80 | 1014.5 |
| 20260905174606 | 80 | 0 | 2.0 | 8.0 | 0.00 | 0.44 | 0.44 | 77 | 1014.4 |
| 20260905174058 | 80 | 0 | 2.0 | 9.0 | 0.00 | 0.44 | 0.44 | 79 | 1014.4 |
| 20260905173559 | 79 | 342 | 3.0 | 9.0 | 0.00 | 0.44 | 0.44 | 78 | 1014.6 |
| 20260905173106 | 79 | 360 | 2.0 | 9.0 | 0.00 | 0.44 | 0.44 | 79 | 1014.6 |
| 20260905172600 | 79 | 331 | 3.0 | 9.0 | 0.00 | 0.44 | 0.44 | 78 | 1014.7 |
| 20260905172059 | 79 | 344 | 4.0 | 9.0 | 0.00 | 0.44 | 0.44 | 77 | 1014.7 |
| 20260905171605 | 79 | 355 | 2.0 | 9.0 | 0.00 | 0.44 | 0.44 | 79 | 1014.7 |
| 20260905171058 | 79 | 288 | 5.0 | 8.0 | 0.00 | 0.44 | 0.44 | 78 | 1014.7 |
| 20260905170559 | 79 | 334 | 3.0 | 8.0 | 0.00 | 0.44 | 0.44 | 78 | 1014.8 |
| 20260905170104 | 79 | 338 | 3.0 | 8.0 | 0.00 | 0.44 | 0.44 | 78 | 1014.8 |
| 20260905165602 | 79 | 291 | 3.0 | 10.0 | 0.00 | 0.44 | 0.44 | 77 | 1014.8 |
| 20260905165059 | 79 | 326 | 3.0 | 10.0 | 0.00 | 0.44 | 0.44 | 78 | 1014.9 |
| 20260905164609 | 79 | 276 | 4.0 | 9.0 | 0.00 | 0.44 | 0.44 | 77 | 1015.1 |
| 20260905164059 | 79 | 336 | 3.0 | 9.0 | 0.00 | 0.44 | 0.44 | 77 | 1015.0 |
| 20260905163557 | 78 | 0 | 3.0 | 9.0 | 0.00 | 0.44 | 0.44 | 77 | 1014.7 |
| 20260905163112 | 78 | 331 | 3.0 | 9.0 | 0.00 | 0.44 | 0.44 | 76 | 1014.7 |
| 20260905162600 | 79 | 330 | 3.0 | 8.0 | 0.00 | 0.44 | 0.44 | 76 | 1014.8 |
| 20260905162100 | 79 | 335 | 3.0 | 8.0 | 0.00 | 0.44 | 0.44 | 76 | 1014.8 |
| 20260905161605 | 79 | 317 | 3.0 | 8.0 | 0.00 | 0.44 | 0.44 | 75 | 1014.6 |
| 20260905161058 | 79 | 337 | 4.0 | 8.0 | 0.00 | 0.44 | 0.44 | 74 | 1014.6 |
| 20260905160559 | 79 | 319 | 3.0 | 8.0 | 0.00 | 0.44 | 0.44 | 74 | 1014.6 |
| 20260905160124 | 80 | 328 | 2.0 | 7.0 | 0.00 | 0.44 | 0.44 | 73 | 1014.5 |
| 20260905155557 | 80 | 315 | 3.0 | 9.0 | 0.00 | 0.44 | 0.44 | 71 | 1014.6 |
| 20260905155057 | 80 | 360 | 3.0 | 9.0 | 0.00 | 0.44 | 0.44 | 72 | 1014.5 |
| 20260905154608 | 80 | 327 | 4.0 | 9.0 | 0.00 | 0.44 | 0.44 | 71 | 1014.5 |